User: anonymous   Login
Location: Caltech
(34.1382°N, 118.1253°W)
Time: 20:29:49
(UTC-07:00)
Language:

Cosmos 1833 Rocket - Orbit

View from above orbital plane
View from above orbital plane
View from above satellite
View from above satellite

Ground track
Ground track

The orbit data is extracted from the following two-line orbital elements,

1 17590U 87027B   15208.81208278 -.00000218  00000-0 -85047-4 0  9999
2 17590 071.0030 163.6823 0007399 275.0188 085.0090 14.16701520466345
Epoch (UTC): 27 July 2015 19:29:23
Eccentricity: 0.0007399
inclination: 71.0030°
perigee height: 831 km
apogee height: 842 km
right ascension of ascending node: 163.6823°
argument of perigee: 275.0188°
revolutions per day: 14.16701520
mean anomaly at epoch: 85.0090°
orbit number at epoch: 46634

The dashed part of the orbit path shows where the satellite is in the earth's shadow,  

DLR